CZ-3C DEB, 39340

Orbit data source: Space-Track

CZ-3C DEB, 39340 is space debris in HEO originally from a launch on Sun, 31 Oct 2010 UTC launched from the Xichang Space Center, China (XSC). Debris objects in space refer to the collection of defunct objects orbiting the Earth. Examples of debris include non-operational satellites, rocket bodies, and fragments generated from explosions, collisions, or faulty payload assembly.

Loading next visibility...
Identifier
39340, 2010-057E
Orbit
HEO
Country
Flag of CNCN / PRC
Related business
Manufacturer
CALT
Mission
Spacecraft
Bus & Motor
Unknown
Mass
Unknown
Launch date (UTC)
2010-10-31 (15 years ago)
Launch vehicle
Unknown
Launch site
Xichang Space Center, China (XSC)
Object type
Payload
Rocket body
Debris
Shape & HBR
Unknown shape, 0.3 m
Radar Cross Section
Medium (>0.1 m² and <1 m²)

Expand to show TLE details & history
Last TLE update: 5 days ago

TLE from 5 days ago
0 CZ-3C DEB
1 39340U 10057E   25288.63177173  .00000697  00000-0  53126-2 0  9993
2 39340  19.7750  63.6247 7152548 249.9016  24.9803  2.30428304 99674
Epoch: 2025-10-15T15:09Z
TLE epoch observation values (Epoch: 2025-10-15T15:09:45.077Z)
Latitude
0.00007°
Longitude
171.71532°
Altitude
9,304.338 km
Speed
5.862 km/s
True Right ascension
04h 14m 13s
True Declination
0° 00' 00"
Sunlit
Object was in daylight at epoch
Visualization orbit readout
Latitude
Unknown
Longitude
Unknown
Altitude
Unknown
Speed
Unknown
Apparent Right ascension
Unknown
Apparent Declination
Unknown
Sunlit
N/A
Visualization observer readout
Local Sidereal Time
21:44:42
Azimuth
Unknown
Elevation
Unknown
Doppler factor
Unknown
Orbital elements
Apogee altitude
35,160.545 km
Perigee altitude
517.597 km
Semi-major axis
24,217.208 km
Eccentricity
0.71525
Inclination
19.775°
RAAN
63.6247°
Arg. of periapsis
249.9016°
True anomaly
110.36614°
Mean anomaly
24.9803°
Eccentric anomaly
60.72867°
Mean motion
0.57591 °/min
Orbital period
625.09 mins
BSTAR
0.0053126
Loading maneuver chart data...
Computing Atmospheric mass density...
Loading historical data...
Loading historical data...
Loading historical data...
Loading historical data...
Loading historical data...
Loading historical data...
Loading historical data...

Documentation

Showing up to 5 results
|